FENGYUN 1C DEB, 30549

Orbit data source: Space-Track

FENGYUN 1C DEB, 30549 is space debris in SSO originally from a launch on Mon, 10 May 1999 UTC launched from the Taiyaun Space Center, China (TSC). Fengyun 1C debris stems from the Chinese weather satellite Fengyun-1C, which was intentionally destroyed by a Chinese anti-satellite missile in 2007. This event dramatically increased the amount of space debris, with thousands of trackable fragments posing hazards to satellites and human spaceflight. The Fengyun 1C debris cloud has become a focal point in discussions about space sustainability and the need for international regulations to prevent the creation of new debris.

Loading next visibility...
Identifier
30549, 1999-025AKP
Orbit
SSO
Country
Flag of CNCN / PRC
Related business
Manufacturer
Unknown
Mission
Spacecraft
Bus & Motor
Unknown
Mass
Unknown
Launch date (UTC)
1999-05-10 (27 years ago)
Launch vehicle
Unknown
Launch site
Taiyaun Space Center, China (TSC)
Object type
Payload
Rocket body
Debris
Shape & HBR
Unknown shape, 0.1 m
Radar Cross Section
Small (<0.1 m²)

Expand to show TLE details & history
Last TLE update: 1 day ago

TLE from 1 day ago
0 FENGYUN 1C DEB
1 30549U 99025AKP 26237.25349492  .00001773  00000-0  86371-3 0  9990
2 30549  98.4892 344.5015 0285596 259.3754  97.5132 14.00216127988685
Epoch: 2026-08-25T06:05Z
TLE epoch observation values (Epoch: 2026-08-25T06:05:01.961Z)
Latitude
-0.00004°
Longitude
-80.28016°
Altitude
928.896 km
Speed
7.371 km/s
True Right ascension
22h 58m 00s
True Declination
0° 00' 00"
Sunlit
Object was in full shadow at epoch
Visualization orbit readout
Latitude
Unknown
Longitude
Unknown
Altitude
Unknown
Speed
Unknown
Apparent Right ascension
Unknown
Apparent Declination
Unknown
Sunlit
N/A
Visualization observer readout
Local Sidereal Time
01:15:00
Azimuth
Unknown
Elevation
Unknown
Doppler factor
Unknown
Orbital elements
Apogee altitude
1,097.799 km
Perigee altitude
682.637 km
Semi-major axis
7,268.355 km
Eccentricity
0.02856
Inclination
98.4892°
RAAN
344.5015°
Arg. of periapsis
259.3754°
True anomaly
100.74101°
Mean anomaly
97.5132°
Eccentric anomaly
99.12882°
Mean motion
3.50259 °/min
Orbital period
102.78 mins
BSTAR
0.00086371
Loading maneuver chart data...
Computing Atmospheric mass density...
Loading historical data...
Loading historical data...
Loading historical data...
Loading historical data...
Loading historical data...
Loading historical data...
Loading historical data...

Documentation

Showing up to 5 results
|